Погода в Каролино-Бугазе

Украина / Одесская область     46°09′03″N   30°32′18″E
темп.,
°C
ветер,
м/с
пор.,
м/с
влажн.,
%
обл.,
%
осадки,
мм/ч
давл.,
гПа
погр.,
м
21 января, пт
пт2123:00+1з446398 0.0 101191
02:00+2з6127159 0.0 1011308
05:00+1зсз101471100 0.0 1011650
08:000сз71271100 0.0 1014675
11:00+1сз81148100 0.0 10161085
14:00+3зсз81137100 0.0 10141609
17:00+1зсз46420 0.0 1015644
20:00+1зюз585191 0.0 1015272
22 января, сб
сб2223:00−1зсз59515 0.0 1015409
02:00−1зсз6105529 0.0 1015415
05:00−1зсз610535 0.0 1015464
08:00−2зсз69540 0.0 1015382
11:00+1зсз67450 0.0 1015924
14:00+1зсз67475 0.0 10151274
17:00−1сз45575 0.0 1015535
20:00−1сз45615 0.0 1017360
23 января, вс
вс2323:00−2сз68655 0.0 1017394
02:00−2сз698985 0.0 1017503
05:00−4ссз698223 0.0 1018468
08:00−4ссз578416 0.0 1019410
11:00−2с566588 0.0 1020885
14:00−1с6654100 0.1 10201376
17:00−2с686496 0.1 1022608
20:00−3ссв697862 0.1 1023597
24 января, пн
пн2423:00−3ссв688692 0.1 1024566
02:00−4с698523 0.1 1026479
05:00−5с71086100 0.0 1026443
08:00−5ссз71180100 0.0 1027506
11:00−3ссз8965100 0.0 1028665
14:00−3ссз81081100 0.1 1027822
17:00−3ссз71086100 0.2 1027834
20:00−4ссз6785100 0.3 1028675
25 января, вт
вт2523:00−4ссз6787100 0.1 1028580
02:00−4ссз5789100 0.2 1028567
05:00−4ссз6891100 0.5 1027517
08:00−5ссз5790100 0.7 1028494
11:00−3ссз5681100 0.1 1028634
14:00−3ссз5577100 0.2 1027756
17:00−3ссз4588100 0.1 1026454
20:00−4ссз3389100 0.1 1026284